Location: Hohenhameln
(52.2587°N, 10.0653°E)
Time: 22:00:30
(UTC+00:00)

Daily predictions for brighter satellites

Satellite Brightness Start Highest point End
(mag) Time Altitude Azimuth Time Altitude Azimuth Time Altitude Azimuth
ATLAS 2AS CENTAUR R/B 3.4 16:48:57 10° WSW 16:55:42 51° NNW 17:02:20 10° NE
Cosmos 2016 Rocket 4.0 16:51:14 10° N 16:57:29 73° ENE 17:03:46 10° SSE
SPOT 1/Viking Rocket 3.5 16:54:48 10° SSE 16:59:52 69° ENE 17:04:59 10° N
Cosmos 1980 4.0 16:55:36 10° NNW 17:01:05 47° NE 17:06:31 10° SE
COSMOS 2428 2.8 16:56:17 10° NNW 17:02:04 85° ENE 17:07:48 10° SSE
Cosmos 2242 Rocket 3.5 16:58:08 10° S 17:02:30 75° E 17:06:53 10° NNE
Cosmos 1802 Rocket 4.2 16:59:45 10° N 17:06:12 87° W 17:12:38 10° S
Cosmos 1674 Rocket 3.9 17:02:20 10° SSE 17:06:29 43° E 17:10:41 10° NNE
Cosmos 2237 Rocket 2.5 17:00:59 10° NNW 17:06:29 48° NE 17:11:58 10° SE
SMAP 4.2 17:01:59 10° S 17:06:30 50° W 17:11:04 10° NNW
Lacrosse 5 rocket 0.9 17:04:13 10° WSW 17:07:42 87° SSE 17:11:18 10° ENE
Cosmos 2285 Rocket 4.2 17:01:43 10° NNW 17:08:05 56° ENE 17:14:21 10° SE
IRS-P3 4.1 17:03:02 10° SSE 17:08:22 79° ENE 17:13:43 10° NNW
Cosmos 2233 Rocket 4.0 17:06:07 10° N 17:12:24 71° ENE 17:18:41 10° SSE
Cosmos 2219 Rocket 4.2 17:07:49 10° NW 17:12:47 33° WSW 17:17:43 10° S
SJ-6B 4.0 17:14:58 10° ESE 17:17:22 18° ENE 17:19:47 10° NNE
Cosmos 1441 Rocket 4.4 17:14:27 10° SW 17:17:36 37° WNW 17:20:45 10° N
CARTOSAT-1 3.9 17:15:35 10° SE 17:19:29 39° ENE 17:23:24 10° N
Cosmos 1867 3.6 17:14:08 10° SW 17:19:35 87° SE 17:25:05 10° NE
USA 267 3.3 17:13:04 10° ENE 17:19:39 82° SSE 17:26:13 10° WSW
Cosmos 1725 Rocket 4.3 17:13:37 10° NNW 17:19:52 78° W 17:26:08 10° S
Aureole 3 Rocket 3.1 17:17:21 10° N 17:21:24 39° ENE 17:24:35 10° SE
NOSS 0 Rocket 4.0 17:16:48 10° NNW 17:23:05 88° WSW 17:29:20 10° SSE
Cosmos 2322 4.3 17:18:49 10° NW 17:24:28 63° WSW 17:30:06 10° SSE
SJ-7 4.4 17:21:15 10° SE 17:24:47 47° ENE 17:28:21 10° N
UNK 4.3 17:21:14 10° N 17:25:45 62° WNW 17:30:16 10° SSW
Cosmos 2151 Rocket 3.8 17:25:44 10° NNW 17:30:14 80° W 17:34:44 10° S
SL-16 R/B 3.1 17:26:21 10° NNW 17:31:16 29° NE 17:35:24 13° E
Meteor 1-31 Rocket 4.2 17:32:45 15° ENE 17:33:00 15° ENE 17:34:59 10° NNE
Cosmos 1814 Rocket 4.1 17:28:13 10° SSW 17:33:31 87° WNW 17:38:47 10° NNE
Cosmos 2227 Rocket 3.5 17:30:51 10° SE 17:34:30 18° E 17:36:55 14° ENE
SAR-Lupe-1 4.4 17:32:25 10° S 17:35:58 68° WSW 17:39:33 10° NNW
Cosmos 1315 Rocket 3.7 17:33:45 10° NNW 17:37:26 49° W 17:41:06 10° S
Cosmos 2061 Rocket 4.1 17:31:13 10° N 17:37:39 89° ENE 17:43:58 10° S
ATLAS 5 CENTAUR R/B 4.2 17:34:12 10° WNW 17:37:45 24° WSW 17:41:53 10° S
Cosmos 1125 Rocket 3.5 17:32:33 10° NNW 17:37:47 88° WSW 17:42:59 10° SSE
SL-19 R/B 4.4 17:32:23 10° SSE 17:38:27 65° ENE 17:44:17 10° NNW
Cosmos 1607 3.9 17:32:46 10° SW 17:38:54 80° SE 17:45:08 10° NE
SL-16 R/B 4.0 17:35:26 10° N 17:41:03 38° WNW 17:46:41 10° WSW
Cosmos 1455 Rocket 3.2 17:38:01 10° N 17:42:12 49° ENE 17:46:22 10° SSE
ARIANE 6 FM1 Upper Stage 3.6 17:39:07 10° NW 17:42:39 30° NNE 17:44:44 19° ENE
CZ-4C R/B 1.8 17:40:23 10° SW 17:44:42 76° SE 17:50:05 11° NE
DNEPR-1 R/B 4.1 17:40:39 10° NW 17:45:13 53° NE 17:49:52 14° ESE
NOSS 3-3 (C) 3.8 17:40:06 10° SSW 17:45:17 61° SE 17:51:20 11° NE
USA 306 4.3 17:43:36 10° W 17:45:19 15° SW 17:46:42 10° S
BREEZE-M DEB (TANK) 3.9 17:41:11 10° W 17:45:20 50° SSW 17:52:02 10° SE
Cosmos 1975 Rocket 4.1 17:42:17 10° SE 17:45:46 24° E 17:49:13 10° NE
YAOGAN 1 2.7 17:42:54 10° S 17:47:09 75° WSW 17:51:26 10° NNW
Cosmos 158 Rocket 4.1 17:43:31 10° SSW 17:48:21 71° WNW 17:53:15 10° NNE
YAOGAN 3 4.5 17:44:30 10° SSE 17:48:39 61° ENE 17:52:50 10° N
SeaSat 1 3.8 17:44:26 10° S 17:49:04 41° WSW 17:53:42 10° NW
Cosmos 1464 Rocket 4.3 17:44:41 10° N 17:50:49 46° ENE 17:56:51 10° SE
NOAA 6 4.0 17:49:53 10° SSE 17:55:02 83° ENE 18:00:14 10° NNW
COSMO-SKYMED 1 2.3 17:51:11 10° NNE 17:55:19 68° ESE 17:59:24 10° S
Spot 4 Rocket 4.1 17:50:31 10° SSE 17:55:38 82° WSW 18:00:47 10° NNW
Cosmos 2228 3.4 17:51:52 10° N 17:55:48 39° ENE 17:59:44 10° SE
Okean 1 Rocket 3.5 17:52:06 10° NNW 17:56:29 66° W 18:00:48 10° S
CZ-4 R/B 2.7 17:58:02 19° NE 17:58:02 19° NE 18:00:08 10° NNE
PSLV R/B 3.4 17:53:36 10° SSE 17:57:44 89° WSW 18:01:51 10° NNW
Okean 2 Rocket 3.9 17:54:29 10° NNW 17:58:48 55° W 18:03:04 10° S
CZ-4B R/B 4.3 17:58:27 20° ENE 17:59:37 22° NE 18:03:35 10° N
Cosmos 2221 Rocket 3.6 17:56:10 10° S 18:00:38 88° ESE 18:05:11 10° N
SPOT 5 3.6 18:00:21 19° ESE 18:03:13 34° ENE 18:07:48 10° N
Cosmos 773 Rocket 4.4 17:59:16 10° S 18:04:09 40° ESE 18:08:54 11° NE
BREEZE-M (TANK) 3.8 18:04:46 10° W 18:07:15 35° SSW 18:12:02 13° SE
Radarsat Rocket 4.3 18:02:55 10° S 18:08:47 69° WSW 18:15:09 10° NNW
CZ-2D R/B 4.4 18:07:14 10° S 18:11:02 48° W 18:14:56 10° NNW
RESURS DK-1 4.2 18:09:06 10° N 18:11:22 15° NNE 18:11:22 15° NNE
NOSS 3-3 (A) 3.8 18:07:33 10° SW 18:12:53 87° NW 18:18:19 15° NE
CSL-04 Rocket 3.9 18:11:33 17° SE 18:15:22 45° ENE 18:20:23 10° N
ATLAS CENTAUR R/B 3.1 18:15:37 10° N 18:15:56 10° N 18:15:56 10° N
IRAS Rocket 4.2 18:11:42 10° SSE 18:17:19 84° ENE 18:22:59 10° NNW
Cosmos 2297 Rocket 2.1 18:12:56 10° SSW 18:18:34 74° ESE 18:24:14 10° NNE
Cosmos 1943 4.2 18:15:31 10° NNW 18:20:24 28° NE 18:21:39 26° ENE
Cosmos 1025 Rocket 4.1 18:16:40 10° SSW 18:20:51 47° WNW 18:25:04 10° N
Cosmos 836 Rocket 4.5 18:16:20 10° S 18:21:32 64° ESE 18:26:47 10° NNE
Orbus 7S? 4.4 18:12:59 10° WNW 18:22:16 76° SW 18:24:45 27° SE
Cosmos 2150 Rocket 3.8 18:17:13 10° NNW 18:22:26 82° ENE 18:27:13 12° SSE
Resurs 01 Rocket 1.9 18:18:55 10° S 18:23:17 70° WSW 18:27:43 10° NNW
Cosmos 2298 Rocket 3.9 18:19:27 10° NNW 18:24:47 81° ENE 18:29:31 13° SSE
NOSS 3-4 (A) 4.0 18:23:37 10° NW 18:30:13 73° SW 18:37:51 11° SSE
NOSS 3-4 (C) 4.0 18:23:52 10° NW 18:30:30 74° SW 18:38:02 11° SSE
Cosmos 2344 4.0 18:24:14 10° S 18:31:07 35° ESE 18:32:55 31° E
Cosmos 1782 2.4 18:27:59 10° N 18:31:34 65° ENE 18:31:36 65° E
CRYOSAT 2 4.4 18:29:57 10° N 18:34:51 79° W 18:39:44 10° SSW
CZ-4B R/B 3.6 18:43:53 59° SSE 18:44:36 82° ENE 18:48:30 10° NNW
Lacrosse 5 rocket 1.8 18:41:26 10° W 18:44:48 40° N 18:44:56 39° N
PAYLOAD B 4.3 18:45:54 43° ESE 18:47:20 55° ENE 18:52:48 10° N
ATLAS 2AS CENTAUR R/B 3.9 18:41:59 10° WNW 18:48:03 32° N 18:51:31 21° NE
Cosmos 2263 Rocket 3.2 18:43:33 10° S 18:46:41 28° SSE 18:46:41 28° SSE
Terra 2.9 18:51:38 29° NNE 18:51:38 29° NNE 18:54:28 10° N
Cosmos 2237 Rocket 3.6 18:45:14 10° NW 18:50:28 39° WSW 18:55:40 10° S
SJ-6B 3.6 18:47:10 10° S 18:50:28 43° W 18:53:47 10° NNW
TSX-5 4.2 18:47:53 10° NNW 18:53:19 66° NE 18:53:39 63° ENE
Okean O Rocket 3.7 19:01:58 15° NNE 19:01:58 15° NNE 19:02:58 10° N
Cosmos 44 Rocket 3.2 18:56:52 10° SW 19:01:49 79° SE 19:02:16 72° ENE
USA 267 3.5 18:59:48 35° ENE 19:02:35 63° N 19:09:01 10° W
ERS-1 Rocket 3.4 19:04:25 47° NNE 19:04:25 47° NNE 19:08:23 10° N
Meteor 1-31 Rocket 3.7 19:06:45 38° NW 19:06:45 38° NW 19:09:07 10° NNW
Cosmos 1816 Rocket 4.4 18:59:52 10° S 19:06:02 90° WSW 19:12:19 10° N
Cosmos 2034 Rocket 3.9 19:01:49 10° NNW 19:08:00 84° W 19:13:44 12° S
ADEOS 3.5 19:12:55 66° NE 19:12:55 66° NE 19:17:44 10° NNW
Cosmos 1544 Rocket 3.7 19:10:19 10° NNW 19:14:21 68° WNW 19:14:21 68° WNW
SL-16 R/B 2.3 19:10:15 10° NNW 19:15:55 75° WSW 19:17:18 52° S
Cosmos 1634 Rocket 3.9 19:10:04 10° N 19:16:24 69° ENE 19:17:03 64° ESE
Cosmos 2227 Rocket 2.1 19:12:05 10° SSW 19:17:45 88° ESE 19:18:49 61° NNE
ARIANE 6 FM1 Upper Stage 3.7 19:18:02 10° NW 19:20:45 41° WNW 19:20:45 41° WNW
Cosmos 1975 Rocket 4.1 19:19:05 10° SW 19:23:14 43° WNW 19:27:24 10° N
Gblst 52 Del rocket 4.4 19:23:13 10° W 19:30:35 83° S 19:31:10 75° SE
CZ-4 R/B 3.2 19:33:01 25° NW 19:33:01 25° NW 19:34:48 10° NNW
CZ-4C R/B 3.3 19:28:58 10° W 19:33:29 36° NNW 19:35:03 31° NNE
MetOp-B 4.3 19:39:24 66° NNW 19:39:24 66° NNW 19:44:01 10° NNW
CZ-4B R/B 3.3 19:40:18 68° NW 19:40:18 68° NW 19:44:59 10° NNW
Cosmos 2279 Rocket 4.2 19:34:07 10° N 19:39:08 57° NNE 19:39:08 57° NNE
SPOT 5 4.0 19:39:23 31° SW 19:41:03 42° W 19:45:53 10° NNW
MOS 1 4.4 19:43:59 72° WSW 19:44:03 72° WSW 19:49:46 10° NNW
Cosmos 2297 Rocket 3.9 19:58:14 10° W 20:03:09 29° NW 20:06:06 19° N
Cosmos 1943 4.0 19:59:20 10° NNW 20:03:25 48° NW 20:03:25 48° NW
Terra 4.1 20:30:15 21° NW 20:30:15 21° NW 20:32:02 10° NNW
Cosmos 2263 Rocket 4.3 20:26:59 10° SW 20:28:28 18° WSW 20:28:28 18° WSW
ATLAS 2AS CENTAUR R/B 3.8 20:34:12 10° NW 20:38:56 35° N 20:38:56 35° N
Cosmos 2344 4.0 20:37:30 10° WSW 20:43:00 49° W 20:43:00 49° W
USA 267 4.1 20:47:08 46° NW 20:47:08 46° NW 20:51:44 10° WNW
Cosmos 2227 Rocket 4.3 20:57:51 10° W 21:00:43 22° WNW 21:00:43 22° WNW
